Location: Gilevgi
(36.8751°N, 30.0581°E)
Time: 03:24:41
(UTC+00:00)

Cosmos 1937 Rocket - Pass Details

Date: 11 December 2025
Orbit: 743 x 775 km, 74.0° (Epoch: 13 January)

Event Time Altitude Azimuth Distance (km) Brightness Sun altitude
Rises 16:58:21 0° 211° (SSW) 3,206 7.3 -26.2°
Reaches altitude 10° 17:00:47 10° 216° (SW) 2,279 6.5 -26.7°
Maximum altitude 17:05:47 49° 291° (WNW) 969 4.2 -27.7°
Enters shadow 17:07:33 34° 342° (NNW) 1,216 4.5 -28.0°
